The Dalles, WA

9:34 AM PDT on August 23, 2019 (GMT -0700)
Columbia Gorge Regional-The Dalles

Weather History for KDLS - June, 2019

Change the Weather History Date:

Thursday, June 13, 2019

  Actual Average Record
Temperature  
Mean Temperature 82 °F -  
Max Temperature 93 °F 78 °F 100 °F (1986)
Min Temperature 70 °F 54 °F 43 °F (1981)
Cooling Degree Days 16    
Growing Degree Days 32 (Base 50)    
Moisture  
Dew Point 51 °F    
Average Humidity 37    
Maximum Humidity 59    
Minimum Humidity 18    
Precipitation  
Precipitation 0.00 in - - ()
Sea Level Pressure  
Sea Level Pressure 29.80 in    
Wind  
Wind Speed 11 mph ()    
Max Wind Speed 24 mph    
Max Gust Speed 34 mph    
Visibility 10.0 miles    
Events      
Averages and records for this station are not official NWS values.
T = Trace of Precipitation, MM = Missing Value Source: Averaged Metar Reports

Daily Weather History Graph

Daily Weather History Graph

Search for Another Location

Airport or City:

Astronomy

Jun. 13, 2019 Rise Set
Actual Time 5:14 AM PDT 8:54 PM PDT
Civil Twilight 4:37 AM PDT 9:32 PM PDT
Nautical Twilight 3:46 AM PDT 10:23 PM PDT
Astronomical Twilight 2:37 AM PDT 11:32 PM PDT
Moon 5:03 PM PDT (6/13) 3:17 AM PDT (6/13)
Length of Visible Light 16h 55m
Length of Day
15h 39m
Waxing Gibbous, 86% of the Moon is Illuminated
Jun 13
Waxing Gibbous
Jun 17
Full
Jun 25
Last Quarter
Jul 2
New
Jul 9
First Quarter

Hourly Weather History & Observations

Time (PDT) Temp. Heat Index Dew Point Humidity Pressure Visibility Wind Dir Wind Speed Gust Speed Precip Events Conditions
12:53 AM 71.1 °F - 55.9 °F 59% 29.79 in 10.0 mi WNW 5.8 mph - N/A   Clear
1:53 AM 75.9 °F - 57.0 °F 52% 29.79 in 10.0 mi WSW 4.6 mph - N/A   Clear
2:53 AM 75.9 °F - 55.9 °F 50% 29.79 in 10.0 mi NW 12.7 mph - N/A   Clear
3:53 AM 75.0 °F - 55.0 °F 50% 29.80 in 10.0 mi WNW 8.1 mph - N/A   Clear
4:53 AM 73.9 °F - 54.0 °F 50% 29.81 in 10.0 mi West 8.1 mph - N/A   Clear
5:53 AM 70.0 °F - 55.0 °F 59% 29.82 in 10.0 mi Variable 3.5 mph - N/A   Clear
6:53 AM 75.0 °F - 54.0 °F 48% 29.83 in 10.0 mi South 3.5 mph - N/A   Clear
7:53 AM 78.1 °F - 53.1 °F 42% 29.83 in 10.0 mi NW 12.7 mph - N/A   Clear
8:53 AM 80.1 °F 80.1 °F 55.0 °F 42% 29.83 in 10.0 mi WNW 10.4 mph - N/A   Clear
9:53 AM 82.9 °F 82.0 °F 55.0 °F 38% 29.82 in 10.0 mi NW 12.7 mph - N/A   Clear
10:53 AM 87.1 °F 85.1 °F 54.0 °F 32% 29.81 in 10.0 mi NW 17.3 mph 25.3 mph N/A   Clear
11:53 AM 90.0 °F 87.7 °F 54.0 °F 29% 29.81 in 10.0 mi NW 15.0 mph 23.0 mph N/A   Clear
12:53 PM 91.0 °F - 50.0 °F 24% 29.81 in 10.0 mi West 23.0 mph 28.8 mph N/A   Clear
1:53 PM 91.9 °F - 46.0 °F 21% 29.79 in 10.0 mi WNW 20.7 mph 31.1 mph N/A   Clear
2:53 PM 93.0 °F - 43.0 °F 18% 29.78 in 10.0 mi West 24.2 mph 33.4 mph N/A   Clear
3:53 PM 93.0 °F - 46.0 °F 20% 29.76 in 10.0 mi West 23.0 mph 29.9 mph N/A   Clear
4:53 PM 91.9 °F - 45.0 °F 20% 29.76 in 10.0 mi West 21.9 mph 34.5 mph N/A   Clear
5:53 PM 88.0 °F - 45.0 °F 22% 29.75 in 10.0 mi West 20.7 mph 31.1 mph N/A   Clear
6:53 PM 84.9 °F - 44.1 °F 24% 29.76 in 10.0 mi WNW 19.6 mph 31.1 mph N/A   Clear
7:53 PM 82.0 °F - 45.0 °F 27% 29.76 in 10.0 mi West 17.3 mph - N/A   Clear
8:53 PM 78.1 °F - 48.0 °F 35% 29.79 in 10.0 mi West 9.2 mph - N/A   Clear
9:53 PM 77.0 °F - 46.9 °F 34% 29.81 in 10.0 mi West 17.3 mph - N/A   Clear
10:53 PM 73.9 °F - 46.9 °F 38% 29.83 in 10.0 mi West 12.7 mph - N/A   Clear
11:53 PM 71.1 °F - 48.9 °F 45% 29.85 in 10.0 mi WNW 11.5 mph - N/A   Clear